Location: Austin
(30.3000°N, 97.7500°W)
Time: 05:49:25
(UTC-06:00)

CZ-4 R/B - Pass Details

Date: 05 February 2026
Orbit: 676 x 743 km, 98.7° (Epoch: 14 February)

Event Time Altitude Azimuth Distance (km) Brightness Sun altitude
Rises 05:57:40 0° 8° (N) 3,175 7.2 -17.9°
Reaches altitude 10° 05:59:58 10° 5° (N) 2,253 6.4 -17.4°
Maximum altitude 06:04:51 61° 285° (WNW) 841 3.9 -16.4°
Drops below altitude 10° 06:09:43 10° 206° (SSW) 2,243 6.3 -15.4°
Sets 06:12:01 0° 203° (SSW) 3,159 7.1 -14.9°
